San Antonio, TX

4:23 AM CDT on April 27, 2018 (GMT -0500)
San Antonio International

Weather History for KSAT - March, 2012

Change the Weather History Date:

Sunday, March 25, 2012

  Actual Average Record
Temperature  
Mean Temperature 70 °F 64 °F  
Max Temperature 82 °F 76 °F 97 °F (1899)
Min Temperature 58 °F 53 °F 34 °F (2006)
Degree Days  
Heating Degree Days 0 3  
Month to date heating degree days 77 135  
Since 1 July heating degree days 1130 1436  
Cooling Degree Days 5 3  
Month to date cooling degree days 79 48  
Year to date cooling degree days 122 74  
Growing Degree Days 19 (Base 50)    
Moisture  
Dew Point 61 °F    
Average Humidity 73    
Maximum Humidity 100    
Minimum Humidity 45    
Precipitation  
Precipitation T in 0.08 in 1.26 in (1960)
Month to date precipitation 2.80 1.90  
Year to date precipitation 12.42 5.45  
Snow  
Snow 0.00 in - - ()
Month to date snowfall 0.0  
Since 1 July snowfall T  
Snow Depth 0.00 in    
Sea Level Pressure  
Sea Level Pressure 30.01 in    
Wind  
Wind Speed 3 mph (ESE)    
Max Wind Speed 10 mph    
Max Gust Speed 13 mph    
Visibility 7 miles    
Events      
T = Trace of Precipitation, MM = Missing Value Source: NWS Daily Summary

Daily Weather History Graph

Daily Weather History Graph

Search for Another Location

Airport or City:

Astronomy

Mar. 25, 2012 Rise Set
Actual Time 7:31 AM CDT 7:48 PM CDT
Civil Twilight 7:07 AM CDT 8:12 PM CDT
Nautical Twilight 6:39 AM CDT 8:40 PM CDT
Astronomical Twilight 6:11 AM CDT 9:08 PM CDT
Moon 9:00 AM CDT (3/25) 10:46 PM CDT (3/25)
Length of Visible Light 13h 05m
Length of Day
12h 17m
Waxing Crescent, 9% of the Moon is Illuminated
Mar 25
Waxing Crescent
Mar 30
First Quarter
Apr 6
Full
Apr 13
Last Quarter
Apr 21
New

Hourly Weather History & Observations

Time (CDT) Temp. Heat Index Dew Point Humidity Pressure Visibility Wind Dir Wind Speed Gust Speed Precip Events Conditions
12:53 AM 64.0 °F - 62.1 °F 93% 29.98 in 8.0 mi Calm Calm - N/A   Clear
1:53 AM 62.1 °F - 59.0 °F 90% 29.99 in 8.0 mi Calm Calm - N/A   Clear
2:53 AM 62.1 °F - 60.1 °F 93% 29.99 in 8.0 mi Calm Calm - N/A   Clear
3:53 AM 57.9 °F - 57.0 °F 97% 29.97 in 7.0 mi Calm Calm - N/A   Clear
4:06 AM 59.0 °F - 57.2 °F 94% 30.01 in 8.0 mi Calm Calm - N/A   Scattered Clouds
4:40 AM 60.8 °F - 57.2 °F 88% 30.01 in 8.0 mi Calm Calm - N/A   Mostly Cloudy
4:53 AM 59.0 °F - 57.9 °F 96% 29.97 in 4.0 mi WNW 3.5 mph - N/A   Mostly Cloudy
5:51 AM 64.4 °F - 62.6 °F 94% 30.02 in 2.0 mi Variable 3.5 mph - N/A   Overcast
5:53 AM 64.0 °F - 63.0 °F 96% 29.98 in 2.0 mi SW 5.8 mph - N/A   Overcast
6:38 AM 62.6 °F - 62.6 °F 100% 30.04 in 0.8 mi Calm Calm - N/A   Overcast
6:53 AM 63.0 °F - 63.0 °F 100% 29.99 in 0.8 mi Calm Calm - N/A   Overcast
7:51 AM 62.6 °F - 62.6 °F 100% 30.06 in 1.0 mi Calm Calm - N/A   Overcast
7:53 AM 63.0 °F - 63.0 °F 100% 30.02 in 1.0 mi Calm Calm - N/A   Overcast
8:46 AM 64.4 °F - 62.6 °F 94% 30.08 in 3.0 mi Calm Calm - 0.00 in   Light Drizzle
8:53 AM 64.0 °F - 63.0 °F 96% 30.04 in 3.0 mi Calm Calm - 0.00 in   Light Drizzle
9:01 AM 64.4 °F - 62.6 °F 94% 30.09 in 3.0 mi Calm Calm - 0.00 in   Light Drizzle
9:53 AM 66.0 °F - 63.0 °F 90% 30.06 in 4.0 mi Calm Calm - 0.00 in   Overcast
10:26 AM 66.2 °F - 62.6 °F 88% 30.10 in 5.0 mi Calm Calm - N/A   Overcast
10:53 AM 68.0 °F - 62.1 °F 81% 30.06 in 7.0 mi Calm Calm - N/A   Overcast
11:37 AM 69.8 °F - 62.6 °F 78% 30.10 in 8.0 mi Calm Calm - N/A   Mostly Cloudy
11:53 AM 70.0 °F - 62.1 °F 76% 30.06 in 8.0 mi Calm Calm - N/A   Mostly Cloudy
12:08 PM 71.6 °F - 62.6 °F 73% 30.09 in 8.0 mi Calm Calm - N/A   Scattered Clouds
12:53 PM 73.9 °F - 62.1 °F 66% 30.04 in 8.0 mi Calm Calm - N/A   Scattered Clouds
1:53 PM 77.0 °F - 63.0 °F 62% 30.01 in 10.0 mi Variable 4.6 mph - N/A   Partly Cloudy
2:53 PM 79.0 °F - 59.0 °F 50% 29.99 in 10.0 mi SSE 3.5 mph - N/A   Clear
3:53 PM 81.0 °F 81.3 °F 59.0 °F 47% 29.97 in 10.0 mi Variable 3.5 mph - N/A   Clear
4:53 PM 81.0 °F 81.1 °F 57.9 °F 45% 29.95 in 10.0 mi East 6.9 mph - N/A   Clear
5:53 PM 80.1 °F 80.7 °F 59.0 °F 48% 29.94 in 10.0 mi ESE 6.9 mph - N/A   Clear
6:53 PM 78.1 °F - 59.0 °F 52% 29.94 in 10.0 mi East 8.1 mph - N/A   Clear
7:53 PM 72.0 °F - 60.1 °F 66% 29.95 in 10.0 mi East 8.1 mph - N/A   Partly Cloudy
8:53 PM 70.0 °F - 60.1 °F 71% 29.97 in 10.0 mi East 5.8 mph - N/A   Partly Cloudy
9:53 PM 69.1 °F - 60.1 °F 73% 29.99 in 10.0 mi Calm Calm - N/A   Clear
10:53 PM 68.0 °F - 60.1 °F 76% 29.99 in 10.0 mi Calm Calm - N/A   Clear
11:53 PM 66.9 °F - 59.0 °F 76% 30.00 in 10.0 mi Calm Calm - N/A   Clear